カタログに戻る

COSMOS 2251 DEB

運用中LEO
NORAD 34037·DEBRIS·🇷🇺 Russia

打ち上げ Jun 16, 1993 から Plesetsk Cosmodrome

Loading…

次のパス (今後24時間)

TLE

最新Source: Space-Track

元期: Sep 14, 2026, 08:58 UTC

1 34037U 93036HY  26257.37387384  .00000727  00000-0  25831-3 0  9991
2 34037  74.0479 265.6217 0055475 249.0620 110.4591 14.35352623916717

AllMySatでCOSMOS 2251 DEBをリアルタイム追跡

Download on the App Store